GW3840 Weather Reports


Display with metric or nautical units.
time (UTC)temp
F
wind
direction
speed
MPH
gust
MPH
rain 1hr
in
rain 24hr
in
rain mn
in
humidity
%
barometer
mb
20260901225708 78 276 2.0 2.0 0.00 0.00 0.00 55 1016.0
20260901225203 78 269 2.0 3.0 0.00 0.00 0.00 54 1016.1
20260901224659 78 291 2.0 2.0 0.00 0.00 0.00 53 1016.1
20260901224155 78 264 2.0 2.0 0.00 0.00 0.00 52 1015.7
20260901223651 79 245 3.0 4.0 0.00 0.00 0.00 51 1016.1
20260901223146 79 263 2.0 3.0 0.00 0.00 0.00 51 1016.3
20260901222642 79 39 2.0 3.0 0.00 0.00 0.00 50 1016.2
20260901222138 79 303 2.0 3.0 0.00 0.00 0.00 51 1016.2
20260901221634 79 304 4.0 6.0 0.00 0.00 0.00 49 1016.4
20260901221129 80 283 2.0 3.0 0.00 0.00 0.00 50 1016.2
20260901220628 79 258 2.0 6.0 0.00 0.00 0.00 48 1016.2
20260901220127 80 297 3.0 4.0 0.00 0.00 0.00 48 1016.1
20260901215625 80 260 2.0 4.0 0.00 0.00 0.00 49 1016.2
20260901215120 80 246 1.0 6.0 0.00 0.00 0.00 48 1016.1
20260901214618 80 341 2.0 3.0 0.00 0.00 0.00 48 1016.0
20260901214112 80 251 2.0 3.0 0.00 0.00 0.00 47 1016.0
20260901213607 80 297 2.0 3.0 0.00 0.00 0.00 47 1016.2
20260901213101 80 254 2.0 4.0 0.00 0.00 0.00 46 1015.8
20260901212555 81 240 2.0 4.0 0.00 0.00 0.00 46 1015.8
20260901212052 80 282 4.0 7.0 0.00 0.00 0.00 46 1016.0
20260901211547 80 257 3.0 6.0 0.00 0.00 0.00 46 1016.2
20260901211044 80 233 3.0 4.0 0.00 0.00 0.00 47 1016.3
20260901210538 81 264 4.0 4.0 0.00 0.00 0.00 47 1016.1
20260901210035 81 255 2.0 4.0 0.00 0.00 0.00 47 1016.1
20260901205529 82 317 2.0 7.0 0.00 0.00 0.00 45 1016.1
20260901205024 82 327 3.0 4.0 0.00 0.00 0.00 46 1015.9
20260901204520 83 343 5.0 7.0 0.00 0.00 0.00 42 1016.0
20260901204015 83 280 2.0 6.0 0.00 0.00 0.00 43 1016.1
20260901203510 82 238 3.0 4.0 0.00 0.00 0.00 43 1016.0
20260901203004 81 325 2.0 2.0 0.00 0.00 0.00 47 1015.9
20260901202459 81 325 2.0 6.0 0.00 0.00 0.00 48 1016.0
20260901201955 82 352 4.0 6.0 0.00 0.00 0.00 47 1015.9
20260901201449 84 14 5.0 7.0 0.00 0.00 0.00 46 1015.9
20260901200943 83 346 1.0 3.0 0.00 0.00 0.00 49 1015.9
20260901200433 82 308 2.0 6.0 0.00 0.00 0.00 48 1016.0
20260901195932 83 21 0.0 3.0 0.00 0.00 0.00 48 1016.1
20260901195431 82 318 5.0 7.0 0.00 0.00 0.00 48 1015.9
20260901194926 82 4 4.0 4.0 0.00 0.00 0.00 48 1016.1
20260901194421 81 347 4.0 6.0 0.00 0.00 0.00 50 1016.1
20260901193917 81 337 3.0 6.0 0.00 0.00 0.00 48 1016.2
20260901193415 82 346 2.0 3.0 0.00 0.00 0.00 51 1016.3
20260901192910 81 276 2.0 8.0 0.00 0.00 0.00 47 1016.4
20260901192406 82 229 2.0 6.0 0.00 0.00 0.00 46 1016.3
20260901191902 82 353 2.0 3.0 0.00 0.00 0.00 49 1016.2
20260901191357 81 358 4.0 6.0 0.00 0.00 0.00 50 1016.2
20260901190853 81 311 4.0 6.0 0.00 0.00 0.00 50 1016.4
20260901190352 82 63 3.0 4.0 0.00 0.00 0.00 49 1016.3
20260901185851 81 337 2.0 3.0 0.00 0.00 0.00 49 1016.3
20260901185344 81 247 2.0 7.0 0.00 0.00 0.00 47 1016.4
20260901184841 81 306 2.0 4.0 0.00 0.00 0.00 51 1016.5
20260901184335 80 255 2.0 3.0 0.00 0.00 0.00 52 1016.4
20260901183831 79 289 4.0 6.0 0.00 0.00 0.00 52 1016.1
20260901183330 78 325 3.0 4.0 0.00 0.00 0.00 53 1016.4
20260901182826 79 280 2.0 6.0 0.00 0.00 0.00 53 1016.3
20260901182326 79 22 1.0 3.0 0.00 0.00 0.00 55 1016.5
20260901181821 80 294 2.0 3.0 0.00 0.00 0.00 53 1016.6
20260901181315 79 283 2.0 2.0 0.00 0.00 0.00 52 1016.5
20260901180809 79 313 4.0 4.0 0.00 0.00 0.00 55 1016.6
20260901180308 79 313 3.0 7.0 0.00 0.00 0.00 55 1016.6
20260901175807 79 21 3.0 4.0 0.00 0.00 0.00 54 1016.7
20260901175305 80 42 3.0 3.0 0.00 0.00 0.00 54 1016.8
20260901174757 79 245 1.0 4.0 0.00 0.00 0.00 53 1017.0
20260901174253 79 275 2.0 3.0 0.00 0.00 0.00 53 1017.4
20260901173748 79 327 6.0 7.0 0.00 0.00 0.00 52 1017.0
20260901173243 78 348 3.0 3.0 0.00 0.00 0.00 55 1016.9
20260901172740 79 260 1.0 3.0 0.00 0.00 0.00 54 1017.2
20260901172238 79 306 2.0 3.0 0.00 0.00 0.00 55 1017.2
20260901171737 80 245 3.0 4.0 0.00 0.00 0.00 53 1017.1
20260901171236 79 217 1.0 3.0 0.00 0.00 0.00 53 1017.4
20260901170735 78 32 1.0 2.0 0.00 0.00 0.00 55 1017.1
20260901170230 79 323 2.0 3.0 0.00 0.00 0.00 56 1017.2
20260901165729 78 265 1.0 3.0 0.00 0.00 0.00 54 1017.4
20260901165228 78 210 2.0 3.0 0.00 0.00 0.00 57 1017.1
20260901164725 78 244 3.0 4.0 0.00 0.00 0.00 56 1017.4
20260901164220 79 319 2.0 3.0 0.00 0.00 0.00 53 1017.4
20260901163716 78 293 1.0 2.0 0.00 0.00 0.00 55 1017.2
20260901163214 78 269 1.0 3.0 0.00 0.00 0.00 55 1017.2
20260901162710 78 245 2.0 2.0 0.00 0.00 0.00 55 1017.1
20260901162209 78 249 2.0 3.0 0.00 0.00 0.00 54 1017.1
20260901161708 77 315 2.0 3.0 0.00 0.00 0.00 56 1017.2
20260901161204 78 257 2.0 6.0 0.00 0.00 0.00 53 1017.0
20260901160700 77 269 2.0 3.0 0.00 0.00 0.00 55 1017.1
20260901160155 76 340 2.0 3.0 0.00 0.00 0.00 55 1016.9
20260901155654 77 343 2.0 4.0 0.00 0.00 0.00 55 1017.0
20260901155149 77 318 3.0 4.0 0.00 0.00 0.00 56 1017.0
20260901154644 77 283 2.0 4.0 0.00 0.00 0.00 57 1017.2
20260901154138 76 259 3.0 4.0 0.00 0.00 0.00 55 1017.1
20260901153633 77 356 2.0 3.0 0.00 0.00 0.00 57 1017.1
20260901153127 76 359 1.0 6.0 0.00 0.00 0.00 59 1017.0
20260901152623 76 76 1.0 2.0 0.00 0.00 0.00 63 1017.0
20260901152121 77 37 3.0 4.0 0.00 0.00 0.00 59 1017.0
20260901151617 76 288 2.0 4.0 0.00 0.00 0.00 58 1017.1
20260901151116 76 314 2.0 4.0 0.00 0.00 0.00 62 1017.2
20260901150615 75 245 1.0 2.0 0.00 0.00 0.00 67 1017.2
20260901150113 74 226 0.0 2.0 0.00 0.00 0.00 70 1017.2
20260901145607 73 145 0.0 1.0 0.00 0.00 0.00 73 1017.5
20260901145106 73 241 1.0 2.0 0.00 0.00 0.00 70 1017.2
20260901144602 73 77 1.0 2.0 0.00 0.00 0.00 72 1017.2
20260901144057 73 332 1.0 3.0 0.00 0.00 0.00 72 1017.5
20260901143552 72 232 0.0 2.0 0.00 0.00 0.00 74 1017.6
20260901143049 73 319 1.0 3.0 0.00 0.00 0.00 71 1017.0
20260901142544 72 30 2.0 2.0 0.00 0.00 0.00 72 1017.2
20260901142043 73 159 0.0 2.0 0.00 0.00 0.00 74 1017.1
20260901141538 71 219 1.0 1.0 0.00 0.00 0.00 75 1017.5
20260901141033 70 214 0.0 2.0 0.00 0.00 0.00 77 1017.2
20260901140532 70 196 0.0 1.0 0.00 0.00 0.00 79 1017.2
20260901140027 71 179 0.0 0.0 0.00 0.00 0.00 76 1017.2
20260901135525 69 189 0.0 0.0 0.00 0.00 0.00 77 1017.4
20260901135021 68 191 0.0 1.0 0.00 0.00 0.00 82 1017.2
20260901134517 67 225 1.0 2.0 0.00 0.00 0.00 83 1017.5
20260901134012 67 216 0.0 1.0 0.00 0.00 0.00 83 1017.4
20260901133510 67 263 1.0 2.0 0.00 0.00 0.00 84 1017.2
20260901133010 66 194 0.0 1.0 0.00 0.00 0.00 87 1017.6
20260901132509 66 228 1.0 1.0 0.00 0.00 0.00 88 1017.4
20260901132009 65 230 1.0 2.0 0.00 0.00 0.00 89 1017.2
20260901131503 65 267 2.0 2.0 0.00 0.00 0.00 88 1017.2
20260901130958 65 193 2.0 3.0 0.00 0.00 0.00 88 1017.1
20260901130453 65 240 1.0 2.0 0.00 0.00 0.00 88 1017.0
20260901125950 65 268 2.0 2.0 0.00 0.00 0.00 88 1016.9
20260901125450 64 233 1.0 2.0 0.00 0.00 0.00 89 1016.9
20260901124945 63 259 2.0 3.0 0.00 0.00 0.00 90 1016.9
20260901124440 61 195 1.0 2.0 0.00 0.00 0.00 96 1016.7
20260901123935 61 227 1.0 1.0 0.00 0.00 0.00 99 1016.7
20260901123430 60 213 0.0 0.0 0.00 0.00 0.00 99 1016.6
20260901122928 59 208 0.0 0.0 0.00 0.00 0.00 99 1016.7
20260901122428 59 203 0.0 0.0 0.00 0.00 0.00 99 1016.6
20260901121927 58 203 0.0 0.0 0.00 0.00 0.00 99 1016.5
20260901121422 58 219 0.0 0.0 0.00 0.00 0.00 99 1016.6
20260901120917 58 219 0.0 0.0 0.00 0.00 0.00 99 1016.5
20260901120417 58 220 0.0 0.0 0.00 0.00 0.00 99 1016.3
20260901115913 58 222 0.0 0.0 0.00 0.00 0.00 99 1016.4
20260901115412 59 232 0.0 0.0 0.00 0.00 0.00 99 1016.4
20260901114911 58 231 0.0 0.0 0.00 0.00 0.00 99 1016.4
20260901114406 57 212 0.0 0.0 0.00 0.00 0.00 99 1016.6
20260901113904 58 211 0.0 0.0 0.00 0.00 0.00 99 1016.4
20260901113403 57 206 0.0 0.0 0.00 0.00 0.00 99 1016.2
20260901112858 58 206 0.0 0.0 0.00 0.00 0.00 99 1016.2
20260901112353 58 239 0.0 0.0 0.00 0.00 0.00 99 1016.2
20260901111848 58 251 0.0 0.0 0.00 0.00 0.00 98 1016.1
20260901111347 59 187 0.0 0.0 0.00 0.00 0.00 98 1016.0
20260901110845 59 193 0.0 0.0 0.00 0.00 0.00 98 1016.0
20260901110341 58 191 0.0 0.0 0.00 0.00 0.00 98 1015.9
20260901105837 58 188 0.0 0.0 0.00 0.00 0.00 98 1015.8
20260901105332 59 186 0.0 0.0 0.00 0.00 0.00 97 1015.7
20260901104829 59 215 0.0 0.0 0.00 0.00 0.00 96 1015.7
20260901104324 59 215 0.0 0.0 0.00 0.00 0.00 96 1015.5
20260901103819 59 193 0.0 0.0 0.00 0.00 0.00 95 1015.6
20260901103319 59 219 0.0 0.0 0.00 0.00 0.00 94 1015.7
20260901102814 60 173 0.0 0.0 0.00 0.00 0.00 93 1015.9
20260901102308 60 173 0.0 0.0 0.00 0.00 0.00 92 1015.6
20260901101804 61 155 0.0 0.0 0.00 0.00 0.00 91 1015.8
20260901101303 62 184 0.0 0.0 0.00 0.00 0.00 88 1015.5
20260901100803 63 216 0.0 0.0 0.00 0.00 0.00 86 1015.4
20260901100258 64 212 0.0 1.0 0.00 0.00 0.00 85 1015.6
20260901095756 64 219 0.0 0.0 0.00 0.00 0.00 85 1015.4
20260901095254 64 246 1.0 2.0 0.00 0.00 0.00 84 1015.4
20260901094748 64 241 1.0 1.0 0.00 0.00 0.00 84 1015.5
20260901094243 65 258 1.0 1.0 0.00 0.00 0.00 84 1015.4
20260901093739 65 226 1.0 2.0 0.00 0.00 0.00 84 1015.4
20260901093237 65 289 2.0 2.0 0.00 0.00 0.00 85 1015.3
20260901092734 65 247 1.0 2.0 0.00 0.00 0.00 85 1015.4
20260901092229 64 251 1.0 1.0 0.00 0.00 0.00 88 1015.3
20260901091725 63 233 1.0 1.0 0.00 0.00 0.00 90 1015.4
20260901091220 62 234 0.0 1.0 0.00 0.00 0.00 93 1015.4
20260901090715 61 237 0.0 0.0 0.00 0.00 0.00 97 1015.3
20260901090210 61 218 0.0 0.0 0.00 0.00 0.00 98 1015.3
20260901085706 61 218 0.0 0.0 0.00 0.00 0.00 97 1015.1
20260901085201 61 218 0.0 1.0 0.00 0.00 0.00 98 1015.2
20260901084657 61 222 0.0 0.0 0.00 0.00 0.00 98 1015.4
20260901084153 61 210 0.0 0.0 0.00 0.00 0.00 98 1015.3
20260901083647 61 210 0.0 0.0 0.00 0.00 0.00 98 1015.2
20260901083146 61 208 0.0 0.0 0.00 0.00 0.00 97 1015.2
20260901082640 61 208 0.0 0.0 0.00 0.00 0.00 97 1015.2
20260901082136 61 208 0.0 0.0 0.00 0.00 0.00 96 1015.2
20260901081631 61 208 0.0 0.0 0.00 0.00 0.00 96 1015.2
20260901081125 61 208 0.0 0.0 0.00 0.00 0.00 95 1015.3
20260901080620 61 181 0.0 0.0 0.00 0.00 0.00 95 1015.4
20260901080118 62 180 0.0 1.0 0.00 0.00 0.00 93 1015.3
20260901075614 62 176 0.0 0.0 0.00 0.00 0.00 92 1015.2
20260901075114 63 174 0.0 0.0 0.00 0.00 0.00 92 1015.3
20260901074613 64 186 0.0 0.0 0.00 0.00 0.00 91 1015.3
20260901074108 64 156 0.0 0.0 0.00 0.00 0.00 91 1015.2
20260901073605 64 149 0.0 0.0 0.00 0.00 0.00 90 1015.4
20260901073059 65 165 0.0 0.0 0.00 0.00 0.00 89 1015.2
20260901072555 66 176 0.0 0.0 0.00 0.00 0.00 87 1015.3
20260901072049 67 166 0.0 2.0 0.00 0.00 0.00 85 1015.3
20260901071544 67 220 0.0 4.0 0.00 0.00 0.00 84 1015.3
20260901071042 67 218 1.0 2.0 0.00 0.00 0.00 84 1015.5
20260901070538 67 203 1.0 3.0 0.00 0.00 0.00 85 1015.3
20260901070033 66 241 1.0 1.0 0.00 0.00 0.00 86 1015.3
20260901065527 67 261 1.0 1.0 0.00 0.00 0.00 84 1015.3
20260901065022 67 234 0.0 2.0 0.00 0.00 0.00 85 1015.1
20260901064519 67 229 1.0 3.0 0.00 0.00 0.00 84 1015.5
20260901064015 66 168 1.0 2.0 0.00 0.00 0.00 85 1015.5
20260901063512 66 226 0.0 0.0 0.00 0.00 0.00 86 1015.4
20260901063007 66 199 0.0 0.0 0.00 0.00 0.00 85 1015.3
20260901062502 66 137 0.0 0.0 0.00 0.00 0.00 86 1015.6
20260901061953 66 226 0.0 0.0 0.00 0.00 0.00 86 1015.6
20260901061449 66 154 0.0 1.0 0.00 0.00 0.00 85 1015.5
20260901060948 66 183 0.0 0.0 0.00 0.00 0.00 84 1015.7
20260901060443 66 201 0.0 0.0 0.00 0.00 0.00 83 1015.4
20260901055938 66 158 0.0 0.0 0.00 0.00 0.00 82 1015.6
20260901055434 67 183 0.0 0.0 0.00 0.00 0.00 81 1015.5
20260901054925 67 151 0.0 0.0 0.00 0.00 0.00 80 1015.4
20260901054422 68 193 0.0 0.0 0.00 0.00 0.00 78 1015.4
20260901053918 68 176 0.0 0.0 0.00 0.00 0.00 77 1015.3
20260901053413 69 223 1.0 3.0 0.00 0.00 0.00 75 1015.2
20260901052908 69 207 1.0 2.0 0.00 0.00 0.00 76 1015.4
20260901052403 69 130 0.0 2.0 0.00 0.00 0.00 76 1015.4
20260901051902 69 184 0.0 1.0 0.00 0.00 0.00 75 1015.2
20260901051357 68 187 1.0 2.0 0.00 0.00 0.00 77 1015.3
20260901050852 66 139 0.0 2.0 0.00 0.00 0.00 81 1015.3
20260901050348 66 176 0.0 0.0 0.00 0.00 0.00 82 1015.3
20260901045843 67 176 0.0 0.0 0.00 0.00 0.00 80 1015.4
20260901045342 67 176 0.0 0.0 0.00 0.00 0.00 80 1015.3
20260901044838 67 157 0.0 0.0 0.00 0.00 0.00 80 1015.4
20260901044334 68 171 0.0 0.0 0.00 0.00 0.00 79 1015.2
20260901043830 68 182 0.0 0.0 0.00 0.00 0.00 77 1015.4
20260901043326 69 193 0.0 1.0 0.00 0.00 0.00 76 1015.3
20260901042824 69 181 0.0 1.0 0.00 0.00 0.00 76 1015.3
20260901042319 69 183 0.0 1.0 0.00 0.00 0.00 77 1015.3
20260901041815 69 175 0.0 0.0 0.00 0.00 0.00 77 1015.0
20260901041310 68 230 1.0 1.0 0.00 0.00 0.00 78 1015.1
20260901040804 67 163 0.0 1.0 0.00 0.00 0.00 82 1015.2
20260901040304 67 121 0.0 1.0 0.00 0.00 0.00 84 1015.3
20260901035803 66 170 0.0 0.0 0.00 0.00 0.00 85 1015.0
20260901035305 66 182 0.0 0.0 0.00 0.00 0.00 86 1015.0
20260901034800 65 185 0.0 0.0 0.00 0.00 0.00 88 1015.2
20260901034255 65 186 0.0 0.0 0.00 0.00 0.00 88 1015.2
20260901033749 65 180 0.0 0.0 0.00 0.00 0.00 88 1015.1
20260901033243 65 187 0.0 0.0 0.00 0.00 0.00 88 1015.0
20260901032742 65 190 0.0 0.0 0.00 0.00 0.00 88 1015.4
20260901032236 65 191 0.0 0.0 0.00 0.00 0.00 87 1015.2
20260901031726 66 191 0.0 0.0 0.00 0.00 0.00 87 1015.2
20260901031222 66 190 0.0 0.0 0.00 0.00 0.00 86 1015.3
20260901030721 66 197 0.0 0.0 0.00 0.00 0.00 85 1015.3
20260901030216 66 197 0.0 0.0 0.00 0.00 0.00 84 1015.1
20260901025711 66 197 0.0 0.0 0.00 0.00 0.00 83 1015.1
20260901025206 66 197 0.0 0.0 0.00 0.00 0.00 83 1015.0
20260901024705 66 199 0.0 0.0 0.00 0.00 0.00 83 1015.1
20260901024204 67 199 0.0 0.0 0.00 0.00 0.00 82 1014.7
20260901023702 67 207 0.0 0.0 0.00 0.00 0.00 80 1014.9
20260901023158 67 207 0.0 0.0 0.00 0.00 0.00 80 1014.9
20260901022653 67 207 0.0 0.0 0.00 0.00 0.00 80 1014.7
20260901022148 68 206 0.0 0.0 0.00 0.00 0.00 78 1014.7
20260901021643 68 207 0.0 0.0 0.00 0.00 0.00 79 1014.7
20260901021139 68 207 0.0 0.0 0.00 0.00 0.00 78 1014.6
20260901020635 68 195 0.0 0.0 0.00 0.00 0.00 79 1014.7
20260901020130 68 208 0.0 0.0 0.00 0.00 0.00 79 1014.6
20260901015625 68 192 0.0 0.0 0.00 0.00 0.00 79 1014.6
20260901015125 68 195 0.0 0.0 0.00 0.00 0.00 79 1014.5
20260901014619 69 178 0.0 0.0 0.00 0.00 0.00 78 1014.5
20260901014116 69 178 0.0 0.0 0.00 0.00 0.00 76 1014.5
20260901013612 69 179 0.0 0.0 0.00 0.00 0.00 75 1014.5
20260901013108 70 178 0.0 0.0 0.00 0.00 0.00 75 1014.3
20260901012607 71 179 0.0 0.0 0.00 0.00 0.00 73 1014.4
20260901012102 71 87 0.0 0.0 0.00 0.00 0.00 72 1014.2
20260901011559 73 87 0.0 0.0 0.00 0.00 0.00 69 1014.1
20260901011056 73 217 0.0 0.0 0.00 0.00 0.00 67 1014.2
20260901010552 74 104 0.0 0.0 0.00 0.00 0.00 66 1014.3
20260901010051 75 110 0.0 0.0 0.00 0.00 0.00 64 1014.4
20260901005546 76 233 1.0 2.0 0.00 0.00 0.00 62 1014.4
20260901005041 77 240 1.0 1.0 0.00 0.00 0.00 61 1014.4
20260901004540 78 215 1.0 3.0 0.00 0.00 0.00 61 1014.3
20260901004035 78 234 1.0 3.0 0.00 0.00 0.00 60 1014.3
20260901003531 79 229 2.0 3.0 0.00 0.00 0.00 58 1014.1
20260901003029 79 230 1.0 2.0 0.00 0.00 0.00 56 1014.3
20260901002528 80 183 1.0 3.0 0.00 0.00 0.00 55 1014.3
20260901002024 80 247 4.0 4.0 0.00 0.00 0.00 53 1014.3
20260901001519 81 233 1.0 6.0 0.00 0.00 0.00 51 1014.2
20260901001014 81 211 2.0 6.0 0.00 0.00 0.00 52 1014.1
20260901000513 81 193 0.0 2.0 0.00 0.00 0.00 52 1014.4
20260901000009 82 227 3.0 3.0 0.00 0.00 0.00 52 1014.1
20260831235503 82 252 3.0 4.0 0.00 0.00 0.00 49 1014.3
20260831234958 82 277 3.0 6.0 0.00 0.00 0.00 51 1014.3
20260831234453 82 162 2.0 3.0 0.00 0.00 0.00 47 1013.9
20260831233949 82 272 3.0 3.0 0.00 0.00 0.00 46 1014.2
20260831233444 83 251 3.0 4.0 0.00 0.00 0.00 45 1014.3
20260831232939 83 184 2.0 4.0 0.00 0.00 0.00 46 1014.2
20260831232435 83 235 2.0 4.0 0.00 0.00 0.00 47 1014.2
20260831231931 84 225 2.0 7.0 0.00 0.00 0.00 47 1014.1
20260831231427 84 173 2.0 4.0 0.00 0.00 0.00 45 1014.2
20260831230923 83 246 2.0 4.0 0.00 0.00 0.00 43 1014.2
20260831230422 84 232 4.0 6.0 0.00 0.00 0.00 43 1014.2